Lid_Strength_Index
-0 -1 -1 -1 -1 -1 -0 -0 -0 -1 -1 -1 -1 -0 -0 -1 -1 -1 -1 -2 -2 -2 -2 -2 -2 -2 -1 -1 -1 -1 -1 -1 -1 -1 -1 -1 -2 -1 -1 -1 -1 -1 -1
-1 -1 -1 -1 -1 -1 -1 -0 -0 -0 -0 -1 -0 -0 -0 -0 -1 -1 -1 -1 -2 -2 -2 -2 -2 -2 -2 -1 -1 -1 -1 -1 -1 -1 -1 -1 -1 -1 -1 -1 -1 -1 -1
-1 -1 -1 -1 -1 -2 -2 -2 -1 -1 -0 -0 -0 -0 -1 -1 -0 -0 -1 -1 -1 -1 -1 -1 -1 -2 -2 -2 -1 -1 -1 -1 -1 -1 -1 -1 -1 -0 -1 -1 -1 -1 0
-2 -1 -1 -1 -1 -1 -1 -1 -1 -0 -0 0 0 -0 -0 -0 -1 -0 -0 -0 -1 -1 -1 -1 -1 -1 -1 -2 -1 -1 -1 -1 -1 -1 -1 -1 -1 -1 -0 -1 -1 1 2
-1 -1 -1 -1 -2 -1 -1 -1 -0 -0 0 0 0 -0 -0 -0 -0 -0 -0 0 -0 -1 -1 -1 -1 -1 -1 -1 -1 -1 -1 -0 -1 -1 -1 -1 -1 -1 -1 -0 1 3 4
-2 -2 -1 -1 -1 -1 -1 -1 -0 -0 0 0 1 1 0 0 -0 -0 -0 -0 -0 -0 -0 -1 -1 -1 -0 -1 -1 -1 -1 -1 -0 -1 -1 -1 -1 -1 -0 1 3 4 4
-2 -2 -1 -1 -1 -1 -1 -1 -0 0 1 -0 1 1 1 0 0 0 -0 -0 -0 -0 -0 -0 -0 -0 -0 -0 -0 -1 -1 -1 -1 -1 -0 -0 -1 -1 1 3 4 4 5
-2 -1 -1 -1 -1 -0 -0 -0 -0 1 1 0 2 2 4 2 1 0 0 0 0 -0 -0 -0 0 0 -0 -0 -0 -0 -1 -1 -1 -1 -0 0 -0 0 2 4 4 4 5
-2 -2 -2 -1 -1 -1 0 -0 -0 0 2 1 0 2 5 5 3 1 1 1 1 0 1 -0 0 -0 -0 -0 -0 -0 -0 -0 -1 -1 -0 0 1 2 3 4 4 6 6
-1 -2 -2 -1 -1 -0 -0 -0 -0 0 1 2 1 1 1 2 5 5 2 1 1 1 0 0 -0 -0 -0 -1 -1 -0 0 0 -0 -0 -0 1 2 2 3 5 5 6 6
-2 -1 -2 -1 -1 -1 -1 -0 -0 0 0 1 1 1 1 2 2 4 6 3 1 1 0 0 0 1 -0 -1 -0 0 2 2 1 0 -0 2 2 3 4 5 5 6 6
-1 -2 -1 -1 -1 -1 -0 -0 -0 -0 0 1 1 1 2 3 3 3 4 4 4 2 1 0 0 -0 -0 -0 -0 -0 1 2 2 1 2 2 2 3 4 5 5 6 6
0 -1 -1 -1 -1 -1 -1 -1 -0 0 0 1 1 1 1 1 1 2 3 4 4 2 2 0 0 0 0 -0 -0 -0 -0 1 2 3 3 3 3 4 5 5 6 6 5
-0 -1 -1 -1 -1 -1 -1 -1 -0 0 0 0 0 1 1 1 1 1 2 3 5 4 2 2 0 0 1 1 0 0 2 3 4 4 4 4 5 5 5 6 6 6 6
-0 -1 -1 -1 -1 -1 -1 -0 0 0 0 0 0 0 1 1 1 1 1 2 3 6 5 3 2 3 4 3 3 5 5 5 6 6 6 6 6 6 6 7 7 6 7
-1 -1 -0 -1 -1 -1 -1 -0 0 -0 0 0 0 1 0 1 1 1 1 1 2 3 6 3 6 6 5 5 4 5 6 6 6 6 7 7 7 8 7 8 7 7 8
-1 -0 -0 -0 -0 -0 -1 -0 0 1 1 1 0 1 1 0 1 1 1 1 2 2 5 5 8 7 7 8 8 7 6 7 6 6 6 7 7 7 7 7 9 9 9
-1 -1 -0 -0 -0 -0 -1 0 1 1 1 1 1 1 1 1 1 1 2 2 2 2 4 6 9 9 9 8 7 9 8 6 6 6 6 6 8 8 7 8 9 10 10
-0 -1 -0 0 0 0 -0 0 1 1 1 1 1 1 1 2 3 3 3 3 3 4 4 6 9 9 8 8 9 9 8 8 7 6 7 6 6 8 8 9 10 10 10
-0 -0 -0 0 -0 0 0 1 1 1 1 1 1 3 4 4 4 4 4 4 4 5 7 8 9 9 9 9 9 10 10 10 10 8 7 8 7 7 8 9 10 10 10
-0 0 1 1 0 0 1 2 1 1 2 3 3 5 6 6 6 5 4 5 6 7 8 9 9 9 10 10 10 10 11 10 10 9 9 8 7 8 8 9 9 10 10
1 1 2 2 1 1 3 4 2 2 3 3 4 4 5 5 6 6 6 6 6 8 9 9 10 11 10 10 9 9 10 11 11 8 7 7 7 8 8 9 10 10 9
2 2 2 2 1 2 5 5 3 2 3 3 4 3 4 5 4 5 6 6 6 7 7 8 10 10 10 9 9 9 8 8 9 8 7 10 8 9 7 8 8 8 9
3 2 2 1 3 4 6 5 4 4 5 4 3 3 4 4 5 5 5 6 7 6 6 7 7 8 8 7 7 7 7 8 8 8 6 8 7 8 6 7 7 8 8
3 3 3 4 5 5 6 6 4 5 5 4 5 4 4 5 8 7 5 6 6 6 7 8 9 9 9 9 8 7 8 8 8 8 7 8 8 8 7 6 6 7 7
5 5 6 6 6 6 7 8 7 7 7 8 7 6 9 7 9 8 5 5 6 5 6 6 5 6 5 5 5 4 5 7 8 8 6 8 8 8 9 7 7 6 7